Showing default

YAOGAN 25B, 40339

Orbit data source: Space-Track

YAOGAN 25B, 40339 is a payload satellite owned by PLA GAD (CN) in LEO that was launched on Wed, 10 Dec 2014 UTC via a CHANG ZHENG 4C launch vehicle from the Jiuquan Satellite Launch Center, China (JSC). Payload-class satellites include a variety of spacecraft equipped with specific instruments for various scientific and technological missions. These include communications satellites like Starlink; space stations such as the ISS; scientific satellites like the Hubble; Earth observation satellites from companies like Planet Labs, Umbra, and HawkEye 360; GPS; miniature CubeSats for education and research; and military/defense satellites.

Loading next visibility...
Identifier
40339, 2014-080B
Orbit
LEO
Country
Flag of CNCN / PRC
Related business
Manufacturer
CAST
Mission
Operational Defense Sigint
Bus & Motor
Unknown
Mass
~500 kg wet, ~500 kg dry
Launch date (UTC)
2014-12-10 (11 years ago)
Launch vehicle
CHANG ZHENG 4C
Launch site
Jiuquan Satellite Launch Center, China (JSC)
Object type
Payload
Rocket body
Debris
Shape & HBR
Box + 2 Pan, 0.5 m
Radar Cross Section
0.446 m², Large (>1 m²)

Expand to show TLE details & history
Last TLE update: 7 hours ago

TLE from 7 hours ago
0 YAOGAN 25B
1 40339U 14080B   26062.50397557  .00000057  00000-0  16913-3 0  9994
2 40339  63.3866 223.1835 0357633   8.4521 352.2314 13.45425265551417
Epoch: 2026-03-03T12:05Z
TLE epoch observation values (Epoch: 2026-03-03T12:05:43.489Z)
Latitude
-0.00005°
Longitude
-119.52982°
Altitude
826.461 km
Speed
7.571 km/s
True Right ascension
14h 52m 44s
True Declination
0° 00' 00"
Sunlit
Object was in full shadow at epoch
Visualization orbit readout
Latitude
Unknown
Longitude
Unknown
Altitude
Unknown
Speed
Unknown
Apparent Right ascension
Unknown
Apparent Declination
Unknown
Sunlit
N/A
Visualization observer readout
Local Sidereal Time
22:57:18
Azimuth
Unknown
Elevation
Unknown
Doppler factor
Unknown
Orbital elements
Apogee altitude
1,354.979 km
Perigee altitude
820.954 km
Semi-major axis
7,466.103 km
Eccentricity
0.03576
Inclination
63.3866°
RAAN
223.1835°
Arg. of periapsis
8.4521°
True anomaly
351.65183°
Mean anomaly
352.2314°
Eccentric anomaly
351.94425°
Mean motion
3.36436 °/min
Orbital period
107 mins
BSTAR
0.00016913
Loading maneuver chart data...
Computing Atmospheric mass density...
Loading historical data...
Loading historical data...
Loading historical data...
Loading historical data...
Loading historical data...
Loading historical data...
Loading historical data...

Documentation

Showing up to 5 results
|